TimeCDT,TemperatureF,Dew PointF,Humidity,Sea Level PressureIn,VisibilityMPH,Wind Direction,Wind SpeedMPH,Gust SpeedMPH,PrecipitationIn,Events,Conditions,WindDirDegrees,DateUTC
12:10 AM,73.0,71.1,93,30.07,5.0,SSE,10.4,-,0.06,Rain-Thunderstorm,Thunderstorms and Rain,160,2013-07-30 05:10:00
12:31 AM,73.0,71.1,93,30.07,4.0,SSE,12.7,-,0.14,Rain,Rain,150,2013-07-30 05:31:00
12:41 AM,73.0,71.1,93,30.07,4.0,SSE,12.7,-,0.18,Rain-Thunderstorm,Heavy Thunderstorms and Rain,150,2013-07-30 05:41:00
12:52 AM,73.0,70.0,90,30.04,4.0,SSE,10.4,-,0.22,Rain-Thunderstorm,Thunderstorms and Rain,150,2013-07-30 05:52:00
1:08 AM,73.0,71.1,93,30.08,2.5,South,9.2,-,0.09,Rain-Thunderstorm,Heavy Thunderstorms and Rain,170,2013-07-30 06:08:00
1:17 AM,72.0,71.1,97,30.08,1.5,SSE,11.5,-,0.26,Rain-Thunderstorm,Heavy Thunderstorms and Rain,160,2013-07-30 06:17:00
1:25 AM,72.0,71.1,97,30.08,2.0,SSE,13.8,-,0.38,Rain-Thunderstorm,Heavy Thunderstorms and Rain,150,2013-07-30 06:25:00
1:35 AM,72.0,71.1,97,30.07,1.5,SSE,15.0,-,0.54,Rain-Thunderstorm,Heavy Thunderstorms and Rain,150,2013-07-30 06:35:00
1:44 AM,72.0,71.1,97,30.06,2.0,SE,18.4,24.2,0.72,Rain-Thunderstorm,Heavy Thunderstorms and Rain,140,2013-07-30 06:44:00
1:49 AM,71.6,71.6,100,30.06,1.8,SSE,26.5,32.2,0.75,Rain-Thunderstorm,Heavy Thunderstorms and Rain,160,2013-07-30 06:49:00
1:52 AM,72.0,71.1,97,30.03,1.2,SE,23.0,32.2,0.83,Rain-Thunderstorm,Heavy Thunderstorms and Rain,140,2013-07-30 06:52:00
2:08 AM,72.0,71.1,97,30.05,3.0,ESE,15.0,-,0.45,Rain-Thunderstorm,Heavy Thunderstorms and Rain,120,2013-07-30 07:08:00
2:13 AM,72.0,71.1,97,30.06,4.0,SE,12.7,-,0.48,Rain-Thunderstorm,Rain,130,2013-07-30 07:13:00
2:34 AM,72.0,70.0,93,30.04,4.0,ESE,13.8,-,0.55,Rain-Thunderstorm,Heavy Thunderstorms and Rain,120,2013-07-30 07:34:00
2:49 AM,71.6,69.8,94,30.02,5.0,East,19.6,27.6,0.64,Rain-Thunderstorm,Rain,100,2013-07-30 07:49:00
2:52 AM,72.0,70.0,93,29.97,6.0,East,20.7,27.6,0.64,Rain-Thunderstorm,Light Rain,100,2013-07-30 07:52:00
3:02 AM,72.0,70.0,93,30.05,1.8,SW,19.6,31.1,0.09,Rain-Thunderstorm,Heavy Rain,230,2013-07-30 08:02:00
3:06 AM,71.1,69.1,93,30.05,1.2,SW,15.0,31.1,0.22,Rain-Thunderstorm,Heavy Thunderstorms and Rain,230,2013-07-30 08:06:00
3:13 AM,70.0,69.1,97,30.05,2.0,SSW,17.3,-,0.33,Rain-Thunderstorm,Heavy Thunderstorms and Rain,210,2013-07-30 08:13:00
3:26 AM,70.0,68.0,93,30.05,1.8,SSW,10.4,-,0.53,Rain-Thunderstorm,Heavy Thunderstorms and Rain,200,2013-07-30 08:26:00
3:30 AM,70.0,68.0,93,30.05,2.0,SW,8.1,-,0.58,Rain-Thunderstorm,Heavy Rain,220,2013-07-30 08:30:00
3:36 AM,70.0,68.0,93,30.04,3.0,SW,8.1,-,0.61,Rain-Thunderstorm,Rain,220,2013-07-30 08:36:00
3:52 AM,70.0,68.0,93,30.01,6.0,South,5.8,-,0.66,Rain-Thunderstorm,Rain,190,2013-07-30 08:52:00
4:03 AM,70.0,69.1,97,30.04,7.0,South,5.8,-,0.02,Rain,Rain,180,2013-07-30 09:03:00
4:52 AM,70.0,69.1,97,29.99,8.0,SE,9.2,-,0.06,Rain,Light Rain,140,2013-07-30 09:52:00
5:52 AM,72.0,70.0,93,30.00,7.0,South,10.4,-,0.06,Rain,Light Rain,170,2013-07-30 10:52:00
6:52 AM,72.0,70.0,93,30.01,10.0,South,9.2,-,0.01,,Overcast,190,2013-07-30 11:52:00
7:52 AM,72.0,70.0,93,30.02,10.0,South,8.1,-,0.01,Rain,Light Rain,190,2013-07-30 12:52:00
8:52 AM,72.0,70.0,93,30.02,8.0,South,10.4,-,0.00,Rain,Light Rain,180,2013-07-30 13:52:00
9:36 AM,73.0,70.0,90,30.06,9.0,SSW,9.2,-,0.00,Rain,Light Rain,200,2013-07-30 14:36:00
9:52 AM,73.0,71.1,93,30.02,7.0,SSW,6.9,-,0.02,Rain,Light Rain,200,2013-07-30 14:52:00
10:11 AM,73.9,72.0,93,30.05,9.0,SSW,6.9,-,0.00,Rain,Light Rain,200,2013-07-30 15:11:00
10:23 AM,73.9,71.1,91,30.05,10.0,South,6.9,-,0.00,Rain,Light Rain,190,2013-07-30 15:23:00
10:52 AM,75.9,72.0,87,30.02,10.0,SSW,10.4,-,0.00,,Mostly Cloudy,210,2013-07-30 15:52:00
11:08 AM,75.9,71.1,85,30.06,10.0,SSW,10.4,-,N/A,,Overcast,210,2013-07-30 16:08:00
11:52 AM,75.9,71.1,85,30.03,10.0,SW,12.7,-,N/A,,Overcast,230,2013-07-30 16:52:00
12:11 PM,73.9,70.0,87,30.06,10.0,SW,11.5,-,N/A,,Overcast,220,2013-07-30 17:11:00
12:22 PM,73.9,70.0,87,30.06,10.0,SW,10.4,-,N/A,,Overcast,220,2013-07-30 17:22:00
12:32 PM,73.9,69.1,85,30.06,10.0,SSW,9.2,-,N/A,,Overcast,210,2013-07-30 17:32:00
12:52 PM,75.0,70.0,84,30.02,10.0,SSW,9.2,-,N/A,,Overcast,210,2013-07-30 17:52:00
1:52 PM,77.0,71.1,82,30.01,10.0,SW,6.9,-,N/A,,Overcast,230,2013-07-30 18:52:00
2:52 PM,78.1,72.0,81,30.00,10.0,WSW,5.8,-,N/A,,Overcast,250,2013-07-30 19:52:00
3:52 PM,78.1,73.0,84,29.99,10.0,Variable,3.5,-,N/A,,Overcast,0,2013-07-30 20:52:00
4:52 PM,80.1,73.0,79,29.99,10.0,Calm,Calm,-,N/A,,Mostly Cloudy,0,2013-07-30 21:52:00
5:52 PM,82.0,73.0,74,29.98,10.0,Calm,Calm,-,N/A,,Mostly Cloudy,0,2013-07-30 22:52:00
6:52 PM,82.9,73.9,74,29.97,10.0,North,4.6,-,N/A,,Mostly Cloudy,10,2013-07-30 23:52:00
7:52 PM,78.1,72.0,81,29.97,10.0,SSW,3.5,-,0.00,,Overcast,210,2013-07-31 00:52:00
8:52 PM,78.1,72.0,81,29.99,10.0,Calm,Calm,-,N/A,,Overcast,0,2013-07-31 01:52:00
9:52 PM,77.0,73.0,88,30.00,10.0,NNW,4.6,-,N/A,,Overcast,330,2013-07-31 02:52:00
10:52 PM,77.0,73.0,88,30.01,10.0,Calm,Calm,-,N/A,,Overcast,0,2013-07-31 03:52:00
11:01 PM,75.9,73.0,91,30.06,10.0,Calm,Calm,-,N/A,,Overcast,0,2013-07-31 04:01:00
11:52 PM,75.9,73.0,91,30.02,10.0,Calm,Calm,-,N/A,,Overcast,0,2013-07-31 04:52:00